ENRYENML

Guest
Details From ENRY - RYGGE
To ENML - Molde Aro
Flight Number -
Tags generated
Created
Modified
Stats Distance 229 nm / 424 km
Max Altitude 24,500 ft / 7,468 m
Waypoints 5
Social Downloads 0
Likes 0
Share VATSIM

Download

Looking for another format? Having issues loading an existing format? Contact us
Advertisement - Login to hide

Notes

Basic altitude profile: - Ascent Rate: 2500ft/min - Ascent Speed: 250kts - Cruise Altitude: 35000ft - Cruise Speed: 420kts - Descent Rate: 1500ft/min - Descent Speed: 250kts Options: - Use NATs: yes - Use PACOTS: yes - Use low airways: yes - Use high airways: yes

Route

ENRY TRF P615 OSVIG UP615 TONDI ENML

ID Type Via Altitude Latitude Longitude Leg Dist Tot Dist Heading (true) Name
O ENRY APT - 0 ft / 0 m 59.37879˚ 10.78543˚ - 0 nm - RYGGE
TRF NDB - 12,000 ft / 3,658 m 59.92918˚ 10.26931˚ 36 nm 36 nm 335° / 334° TYRIFJORD NDB
OSVIG FIX P615 (AWY-LO) 24,500 ft / 7,468 m 61.07444˚ 9.39889˚ 73 nm 110 nm 340° / 339° -
TONDI FIX UP615 (AWY-HI) 24,500 ft / 7,468 m 62.00000˚ 8.70778˚ 59 nm 169 nm 341° / 340° -
O ENML APT - 0 ft / 0 m 62.74557˚ 7.26748˚ 60 nm 229 nm 319° / 318° Molde Aro

Altitude Profile

Advertisement - Login to hide

Weather


0- 5 10 15 20 25 30 35+ Temperature / ° C

Clouds and Precipitation
Forecast for 2018-05-25 00:00 UTC. Updated 4 hours ago

Ground ~20,000 ft ~40,000 ft Winds

ENRY

Details ICAO ENRY (RYG)
Name RYGGE
Region Norway
Timezone Europe/Oslo (UTC+2.0)
Stats Elevation 174 ft / 53 m (AMSL)
Location 59.378793° 10.785426°
Runways 1
Magnetic Variation 3.292° E

METAR

ENRY 250320Z AUTO 00000KT 9999NDV NCD 11/09 Q1027

Decode

TAF

TAF TAF ENRY 242300Z 2500/2524 VRB05KT CAVOK

Decode

Departure Runways

ID Width Length Bearing (true) Bearing (mag) Surface Threshold Offset Overrun Length
12 148 ft / 45 m 7,990 ft / 2,435 m 116.83° 113.54° Asphalt 0 ft / 0 m 898 ft / 274 m
30 148 ft / 45 m 7,990 ft / 2,435 m 296.86° 293.57° Asphalt 0 ft / 0 m 898 ft / 274 m

ENML

Details ICAO ENML (MOL)
Name Molde Aro
Region Norway
Timezone Europe/Oslo (UTC+2.0)
Stats Elevation 10 ft / 3 m (AMSL)
Location 62.745572° 7.267482°
Runways 1
Magnetic Variation 1.800° E

METAR

ENML 250320Z AUTO 08005KT 9999NDV OVC004/// 10/09 Q1028

Decode

TAF

Not found

Destination Runways

ID Width Length Bearing (true) Bearing (mag) Surface Threshold Offset Overrun Length
07 148 ft / 45 m 6,886 ft / 2,099 m 70.96° 69.16° Asphalt 230 ft / 70 m 0 ft / 0 m
25 148 ft / 45 m 6,886 ft / 2,099 m 251.00° 249.20° Asphalt 197 ft / 60 m 0 ft / 0 m

Approach Navaids

Runway Type Ident Frequency Range Bearing (true) Bearing (mag) Slope Elevation
07 Localiser ML 109.75 MHz 18 nm / 33 km 71.02° 69.22° - 4 ft / 1 m (AMSL)
07 Glidescope ML 109.75 MHz 10 nm / 19 km 71.02° 69.22° 3.10° 8 ft / 2 m (AMSL)
25 Localiser ME 109.10 MHz 18 nm / 33 km 256.01° 254.21° - 5 ft / 2 m (AMSL)